#timestamp,LO_Frequency,Hit,StdDev 
1673424015.2,286046999.0,N
1673424035.0,286046996.5,Y
1673424036.0,286046996.5,P
1673424055.8,286046998.9,N
1673424075.6,286046996.7,N
1673424095.5,286046999.3,N
1673424115.3,286046999.5,N
1673424135.1,286046996.8,N
1673424155.9,286046997.1,N
1673424175.7,286046996.7,N
1673424195.6,286046999.2,N
1673424215.4,286046996.7,N
1673424235.2,286046999.4,N
1673424255.1,286046997.2,N
1673424256.0,286046997.2,N
1673424275.8,286046997.8,N
1673424295.6,286046997.0,N
1673424315.5,286046996.9,N
1673424335.3,286046997.0,N
1673424355.2,286046996.7,N
1673424375.0,286046997.0,N
1673424375.9,286046997.0,N
1673424395.7,286046997.0,N
1673424415.6,286046999.2,N
1673424435.4,286046999.1,N
1673424455.3,286046994.9,Y
1673424475.1,286046998.5,P
1673424495.8,286047000.7,N
1673424515.7,286047000.5,N
1673424535.5,286046998.2,N
1673424555.4,286047001.1,N
1673424575.2,286047000.5,N
1673424595.0,286047000.5,N
1673424595.9,286047000.5,N
1673424615.8,286047002.7,N
1673424635.6,286047002.3,N
1673424655.5,286047002.2,N
1673424675.3,286047002.4,N
1673424695.1,286047002.3,N
1673424715.9,286047002.3,N
1673424735.7,286046999.9,N
1673424755.6,286047000.4,N
1673424775.4,286047001.1,N
1673424795.2,286046999.7,N
1673424815.1,286047001.1,N
1673424816.0,286047001.1,N
1673424835.8,286047001.2,N
1673424855.6,286046998.7,N
1673424875.5,286046998.6,N
1673424895.3,286046998.1,N
1673424915.2,286047000.5,N
1673424935.9,286046999.9,N
1673424955.7,286047000.4,N
1673424975.6,286046999.7,N
1673424995.4,286047000.6,N
1673425015.3,286046999.7,N
1673425035.1,286047002.0,N
1673425036.0,286047002.0,N
1673425055.8,286047001.8,N
1673425075.7,286047001.9,N
1673425095.5,286047001.7,N
1673425115.4,286047002.2,N
1673425135.2,286047002.1,N
1673425155.0,286047004.4,Y
1673425155.9,286047004.4,P
1673425175.8,286047001.8,N
1673425195.6,286047001.6,N
1673425215.4,286047002.5,N
1673425235.3,286047001.4,N
1673425255.1,286046999.7,N
1673425275.9,286047002.7,N
1673425295.7,286047002.7,N
1673425315.5,286047002.3,N
1673425335.4,286047001.4,N
1673425355.2,286047001.3,N
1673425375.0,286047001.3,N
1673425375.9,286047001.3,N
1673425395.8,286047001.3,N
1673425415.6,286047003.5,Y
1673425435.5,286047000.1,P
1673425455.3,286047000.4,N
1673425475.1,286047000.7,N
1673425495.9,286047000.3,N
1673425515.7,286047002.3,Y
1673425535.6,286047002.1,P
1673425555.4,286047002.0,N
1673425575.2,286047002.0,N
1673425595.1,286047002.1,Y
1673425596.0,286047002.1,P
1673425615.8,286047000.2,N
1673425635.6,286047000.5,N
1673425655.5,286046999.8,N
1673425675.3,286047000.1,N
1673425695.2,286047000.2,N
1673425715.9,286047000.1,N
1673425735.7,286047000.1,N
1673425785.6,286047002.8,E
1673425795.5,286047000.4,N
1673425815.4,286046997.2,P
1673425835.2,286046999.5,N
1673425855.0,286046999.1,N
1673425855.9,286046999.1,N
1673425875.8,286046999.1,N
1673425895.6,286046999.0,N
1673425915.4,286046998.5,N
1673425935.3,286046999.3,N
1673425955.1,286047001.2,N
1673425975.9,286047000.8,N
1673425995.7,286047000.8,N
1673426015.5,286047000.4,N
1673426035.4,286046998.9,N
1673426055.2,286046997.2,N
1673426075.0,286046995.0,Y
1673426076.0,286046995.0,P
1673426095.8,286046996.5,N
1673426115.6,286046996.9,N
1673426135.5,286046999.0,N
1673426155.3,286046998.3,N
1673426175.1,286046998.6,N
1673426195.9,286047000.6,N
1673426215.7,286047000.9,N
1673426235.6,286047000.3,N
1673426255.4,286047000.3,N
1673426275.2,286046999.7,N
1673426295.1,286046999.8,N
1673426296.0,286046999.8,N
1673426315.8,286047011.9,Y
1673426335.6,286047002.2,P
1673426355.5,286047002.0,N
1673426375.3,286047001.7,N
1673426395.2,286047001.6,N
1673426415.9,286047002.2,N
1673426435.7,286047002.6,N
1673426455.6,286047001.9,N
1673426475.4,286047002.1,N
1673426495.2,286047002.3,N
1673426515.1,286047002.4,N
1673426516.0,286047002.4,N
1673426535.8,286047002.6,N
1673426555.7,286047002.0,N
1673426575.5,286047001.6,N
1673426595.3,286047001.3,N
1673426615.2,286047001.8,N
1673426635.9,286047003.6,Y
1673426655.7,286047001.6,P
1673426675.6,286046999.8,N
1673426695.4,286047002.5,N
1673426715.3,286047001.5,N
1673426735.1,286047001.8,N
1673426736.0,286047001.8,N
1673426755.8,286047002.7,Y
1673426775.7,286046998.3,P
1673426795.5,286047000.8,N
1673426815.3,286047000.3,N
1673426835.2,286047000.2,N
1673426855.0,286047000.5,N
1673426855.9,286047000.5,N
1673426875.8,286047000.5,N
1673426895.6,286046998.6,N
1673426915.4,286046998.2,N
1673426935.3,286046999.9,N
1673426955.1,286046998.1,N
1673426975.8,286047000.4,N
1673426995.7,286046999.8,N
1673427015.5,286047000.8,N
1673427035.4,286047000.0,N
1673427055.2,286047001.0,N
1673427075.0,286047000.8,N
1673427075.9,286047000.8,N
1673427095.8,286047000.7,N
1673427115.6,286047000.9,N
1673427135.5,286047002.8,N
1673427155.3,286047000.3,N
1673427175.1,286046999.9,N
1673427195.9,286047000.4,N
1673427215.7,286047000.2,N
1673427235.6,286047001.2,N
1673427255.4,286046999.7,N
1673427275.2,286047002.6,N
1673427295.1,286047001.8,N
1673427296.0,286047001.8,N
1673427315.8,286047002.5,N
1673427335.7,286047001.6,N
1673427355.5,286047002.2,N
1673427375.3,286047002.6,N
1673427395.2,286047002.4,N
1673427415.0,286047000.1,N
1673427415.9,286047000.1,N
1673427435.8,286047002.0,N
1673427455.6,286047000.2,N
1673427475.4,286047002.4,N
1673427495.3,286047002.7,N
1673427515.1,286047002.3,N
1673427535.9,286047002.1,N
1673427555.7,286047001.3,N
1673427575.5,286047002.8,N
1673427595.4,286047002.1,N
